Mount Holly, NJ

1:27 PM EST on December 08, 2019 (GMT -0500)
South Jersey Regional

Weather History for KVAY - September, 2019

Change the Weather History Date:

Wednesday, September 18, 2019

  Actual Average (WUND) Record (WUND)
Temperature  
Mean Temperature 62 °F -  
Max Temperature 73 °F - - (-1)
Min Temperature 51 °F - - (-1)
Degree Days  
Heating Degree Days 2    
Growing Degree Days 12 (Base 50)    
Moisture  
Dew Point 51 °F    
Average Humidity 74    
Maximum Humidity 96    
Minimum Humidity 42    
Precipitation  
Precipitation 0.00 in - - ()
Sea Level Pressure  
Sea Level Pressure 30.21 in    
Wind  
Wind Speed 2 mph (NE)    
Max Wind Speed 8 mph    
Max Gust Speed -    
Visibility 9 miles    
Events      
Averages and records for this station are not official NWS values.
T = Trace of Precipitation, MM = Missing Value Source: NWS Daily Summary

Daily Weather History Graph

Daily Weather History Graph

Search for Another Location

Airport or City:

Astronomy

Sep. 18, 2019 Rise Set
Actual Time 6:42 AM EDT 7:03 PM EDT
Civil Twilight 6:15 AM EDT 7:30 PM EDT
Nautical Twilight 5:44 AM EDT 8:02 PM EDT
Astronomical Twilight 5:11 AM EDT 8:34 PM EDT
Moon 9:36 PM EDT (9/18) 10:43 AM EDT (9/18)
Length of Visible Light 13h 14m
Length of Day
12h 20m
Waning Gibbous, 82% of the Moon is Illuminated
Sep 18
Waning Gibbous
Sep 21
Last Quarter
Sep 28
New
Oct 5
First Quarter
Oct 13
Full

Hourly Weather History & Observations

Time (EDT) Temp. Dew Point Humidity Pressure Visibility Wind Dir Wind Speed Gust Speed Precip Events Conditions
12:54 AM 54.0 °F 52.0 °F 93% 30.15 in 10.0 mi Calm Calm - N/A   Clear
1:54 AM 53.1 °F 52.0 °F 96% 30.15 in 10.0 mi Calm Calm - N/A   Clear
2:06 AM 53.1 °F 52.0 °F 96% 30.15 in 1.8 mi Calm Calm - N/A   Clear
2:14 AM 53.1 °F 51.1 °F 93% 30.15 in 4.0 mi Calm Calm - N/A   Clear
2:54 AM 53.1 °F 51.1 °F 93% 30.15 in 10.0 mi Calm Calm - N/A   Clear
3:54 AM 52.0 °F 50.0 °F 93% 30.16 in 10.0 mi Calm Calm - N/A   Clear
4:54 AM 52.0 °F 50.0 °F 93% 30.16 in 10.0 mi Calm Calm - N/A   Clear
5:54 AM 53.1 °F 51.1 °F 93% 30.17 in 10.0 mi Calm Calm - N/A   Clear
6:54 AM 52.0 °F 50.0 °F 93% 30.19 in 6.0 mi Calm Calm - N/A   Clear
7:54 AM 57.0 °F 52.0 °F 83% 30.21 in 10.0 mi NNE 3.5 mph - N/A   Partly Cloudy
8:54 AM 63.0 °F 55.0 °F 75% 30.22 in 10.0 mi NNE 5.8 mph - N/A   Clear
9:54 AM 66.0 °F 54.0 °F 65% 30.22 in 10.0 mi NE 8.1 mph - N/A   Clear
10:54 AM 69.1 °F 53.1 °F 57% 30.22 in 10.0 mi ENE 8.1 mph - N/A   Scattered Clouds
11:54 AM 69.1 °F 51.1 °F 53% 30.22 in 10.0 mi Variable 4.6 mph - N/A   Mostly Cloudy
12:54 PM 68.0 °F 52.0 °F 56% 30.22 in 10.0 mi Variable 3.5 mph - N/A   Partly Cloudy
1:54 PM 72.0 °F 51.1 °F 48% 30.21 in 10.0 mi NE 8.1 mph - N/A   Scattered Clouds
2:54 PM 72.0 °F 50.0 °F 46% 30.21 in 10.0 mi North - - N/A   Scattered Clouds
3:54 PM 73.0 °F 48.9 °F 42% 30.21 in 10.0 mi NE 5.8 mph - N/A   Mostly Cloudy
4:54 PM 71.1 °F 48.0 °F 44% 30.21 in 10.0 mi NNE 4.6 mph - N/A   Partly Cloudy
5:54 PM 69.1 °F 48.9 °F 49% 30.22 in 10.0 mi East 4.6 mph - N/A   Partly Cloudy
6:54 PM 64.0 °F 50.0 °F 60% 30.23 in 10.0 mi Variable 5.8 mph - N/A   Clear
7:54 PM 60.1 °F 50.0 °F 69% 30.25 in 10.0 mi Calm Calm - N/A   Clear
8:54 PM 57.9 °F 50.0 °F 75% 30.27 in 10.0 mi Calm Calm - N/A   Unknown
9:54 PM 55.9 °F 50.0 °F 80% 30.29 in 10.0 mi Calm Calm - N/A   Clear
10:54 PM 52.0 °F 48.9 °F 89% 30.30 in 10.0 mi Calm Calm - N/A   Clear
11:54 PM 51.1 °F 48.9 °F 92% 30.30 in 10.0 mi Calm Calm - N/A   Clear